Weather in Tashbulatovo

Russia / Republic of Bashkortostan     53°37′17″N   58°42′04″E
temp.,
°C
wind,
m/s
gust,
m/s
humid.,
%
clouds,
%
prec.,
mm/h
press.,
hPa
HPBL,
m
2 march, tue
tue223:00−16sse019997 0.3 101820
02:00−17w119898 0.0 101820
05:00−18w129469 0.0 101820
08:00−19w22910 0.0 101620
11:00−14w23860 0.0 1015148
14:00−9sw37805 0.0 1012456
17:00−8sw5118450 0.0 1010625
20:00−11sw51687100 0.0 1009633
3 march, wed
wed323:00−15sw468898 0.0 1009110
02:00−10ssw41187100 0.0 1006472
05:00−8sw41388100 0.0 1004503
08:00−8sw41188100 0.0 1003308
11:00−4sw51186100 0.0 1003730
14:00−1sw5882100 0.0 1002993
17:00−1sw4885100 0.1 1002363
20:00−6wsw348898 0.0 100346
4 march, thu
thu423:00−10wsw338953 0.0 100424
02:00−11w33880 0.0 100325
05:00−13wsw23890 0.0 100422
08:00−13w34880 0.0 100551
11:00−8wnw512820 0.0 1006671
14:00−6wnw69760 0.0 10071207
17:00−7w4118149 0.0 1008744
20:00−10wsw4118539 0.0 1010253
5 march, fri
fri523:00−11sw5148770 0.0 1011468
02:00−10ssw61587100 0.0 1008586
05:00−6sw7178692 0.1 1006800
08:00−4sw8188180 0.0 1005913
11:00−3sw10198081 0.0 10061138
14:00−1wsw10178073 0.0 10061227
17:00−2wsw8158385 0.0 10081044
20:00−4sw5148795 0.0 1009468
6 march, sat
sat623:00−4sw5128650 0.0 1010334
02:00−4sw5108852 0.0 1010231
05:00−4ssw489076 0.0 1011142
08:00−2ssw4992100 0.0 1011376
11:00−1ssw61089100 0.1 1009784
14:000ssw81399100 0.9 1006883
17:000sw91784100 1.4 10041207
20:00−1sw71684100 0.0 1002979